Lexington Weather

Lexington, Massachusetts, USA

34°F
4/16/2021 10:09am 
  • Lexington Conditions: Snow, Fog, Overcast
  • Temperature: 33.8°F / 1.0°CColder 0.9°F than last hour.
  • Dew Point: 32.5°FDecreased 0.6°Fsince last hour.
  • Relative Humidity: 95%Increased 1.0% since last hour.
  • Wind: Calm, 10-min avg: Calm, gust: None
  • Barometer: 29.49 in Steady
  • Visibility: ½ mile
  • Snow Today: 1.3 in
  •   

Regional Weather Roundup
for Boston / Norton, MA

        
000
ASUS41 KBOX 151104
RWRBOX

REGIONAL WEATHER ROUNDUP
NATIONAL WEATHER SERVICE BOSTON/NORTON MA
700 AM EDT THU APR 15 2021

NOTE:  "FAIR" INDICATES FEW OR NO CLOUDS BELOW 12,000 FEET WITH NO 
SIGNIFICANT WEATHER AND/OR OBSTRUCTIONS TO VISIBILITY.

MAZALL-151200-
EASTERN MASSACHUSETTS
  
CITY           SKY/WX    TMP DP  RH WIND       PRES   REMARKS
BOSTON         MOCLDY    47  39  74 SE7       29.89S                  
BEVERLY        NOT AVBL                                               
LAWRENCE       CLEAR     45  40  82 E6        29.90S                  
BEDFORD        PTCLDY    44  40  85 CALM      29.86F                  
BLUE HILL        N/A     42  37  82 SE10      29.85S                  
NORWOOD        MOCLDY    46  38  73 SE3       29.87F                  
MARSHFIELD     MOCLDY    46  41  81 SE3       29.89S                  
PLYMOUTH       CLOUDY    44  37  76 E7        29.88S                  
TAUNTON          N/A    N/A N/A N/A MISG      29.87F                  
NEW BEDFORD    MOCLDY    46  38  73 SE5       29.87S                  
$$

MAZALL-151200-
CAPE COD AND THE ISLANDS
  
CITY           SKY/WX    TMP DP  RH WIND       PRES   REMARKS
FALMOUTH       NOT AVBL                                               
HYANNIS        PTSUNNY   45  40  82 SE3       29.88S                  
CHATHAM        SUNNY     43  39  86 SE3       29.91S                  
PROVINCETOWN   PTSUNNY   42  40  92 MISG        N/A                   
NANTUCKET      PTSUNNY   43  40  89 SE7       29.89F                  
MARTHAS VNYRD  CLOUDY    46  38  73 SE5       29.88S                  
$$
 
MAZALL-151200-
CENTRAL AND WESTERN MASSACHUSETTS
  
CITY           SKY/WX    TMP DP  RH WIND       PRES   REMARKS
WORCESTER      CLOUDY    44  38  79 SE6       29.84S                  
FITCHBURG      CLOUDY    46  39  76 E3        29.87R                  
ORANGE         CLOUDY    47  41  80 SE3       29.84S                  
SPRINGFIELD    CLOUDY    47  41  79 E5        29.81F                  
WESTFIELD      CLOUDY    47  43  86 CALM      29.82S                  
NORTH ADAMS    CLOUDY    48  43  82 E7        29.79S                  
PITTSFIELD     LGT RAIN  45  43  93 NE5       29.77S                  
$$
 
RIZALL-151200-
RHODE ISLAND
  
CITY           SKY/WX    TMP DP  RH WIND       PRES   REMARKS
PROVIDENCE     CLOUDY    47  39  74 SE7       29.88R                  
NEWPORT        CLOUDY    44  40  85 SE9       29.86S                  
BLOCK ISLAND   CLOUDY    44  41  89 SE13      29.86R                  
SMITHFIELD     CLOUDY    44  40  85 CALM      29.86F                  
WESTERLY       CLOUDY    43  41  93 E10       29.85S FOG              
$$
 
CTZALL-151200-
CONNECTICUT
  
CITY           SKY/WX    TMP DP  RH WIND       PRES   REMARKS
BRADLEY INTL   CLOUDY    48  41  76 E3        29.82S                  
HARTFORD       CLOUDY    49  41  74 E5        29.82S                  
BRIDGEPORT     RAIN      47  46  97 E16       29.80S FOG              
DANBURY        CLOUDY    51  47  86 E6        29.80S                  
GROTON         CLOUDY    46  42  86 E17       29.84R                  
NEW HAVEN      LGT RAIN  49  47  93 E6        29.81R FOG              
CHESTER        CLOUDY   N/A N/A N/A E7        29.81F HAZE             
MERIDEN        CLOUDY    48  43  82 CALM      29.81S                  
WILLIMANTIC    CLOUDY    47  40  76 VRB6      29.84S                  
OXFORD         RAIN      46  46 100 E5        29.80S FOG              
$$

MEZ002-015-021-024-NHZ003-005-008-011-012-014-VTZ005-008-151200-
NORTHERN NEW ENGLAND
  
CITY           SKY/WX    TMP DP  RH WIND       PRES   REMARKS
PORTLAND ME    MOSUNNY   42  41  96 CALM      29.91S                  
BANGOR ME      SUNNY     37  34  89 CALM      29.93R                  
CONCORD NH     PTCLDY    41  39  93 CALM      29.88S                  
MANCHESTER NH  MOCLDY    44  38  79 CALM      29.87R                  
NASHUA NH      CLOUDY    43  41  93 CALM      29.88S                  
PORTSMOUTH NH  MOCLDY    43  41  94 E3        29.90S                  
JAFFREY NH     MOCLDY    43  38  82 CALM      29.84S                  
KEENE NH       CLOUDY    46  39  76 CALM      29.84F                  
BURLINGTON VT  LGT RAIN  53  43  68 SE5       29.76R                  
MT. WASHINGTON FOG       28  28 100 S18         N/A  VSB 1/16WCI  16  
$$

NYZ052-076-151200-
EASTERN NEW YORK
  
CITY           SKY/WX    TMP DP  RH WIND       PRES   REMARKS
ALBANY         CLOUDY    49  42  77 CALM      29.76S                  
NEW YORK CITY  CLOUDY    49  45  86 NE9       29.78S                  
$$
 
ANZALL-151200-
MARINE OBSERVATIONS
  
STATION/POSITION TIME  TEMP    WIND        PRES    VSBY  WAVE
                       AIR SEA DIR/SP/G                  HT/PER
                 (UTC) (F)     (DEG/KT/KT) (MB)    (MI)  (FT/S)
BOSTON BUOY      1040   44 45  140/  6/  8 1012.9R
BUZZARDS BAY     1000          120/ 13/ 14 1012.4F
NANTUCKET SOUND  1040      47                N/A
MASS BAY-STELLWA 1004   45     150/  6/  8 1011.3F  1 7/8  4/11
ISLE OF SHOALS   1000   45     130/  4/  4 1012.0F
S OF BLOCK IS    1026      45                N/A           3/12
$$

......................KEY.........................
  SKY/WX - SKY CONDITION/PRESENT WEATHER
  TMP    - TEMPERATURE IN FAHRENHEIT
  DWPT   - DEWPOINT IN FAHRENHEIT
  RH     - RELATIVE HUMIDITY IN PERCENT
  WIND   - DIRECTION AND SPEED IN MPH
  PRES   - MEAN SEA LEVEL PRESSURE IN INCHES OF HG
  WCI    - WIND CHILL INDEX
  VSB    - VISIBILITY IN MILES
  HX     - HEAT INDEX
  TC     - TEMPERATURE IN CELSIUS
  VRB    - VARIABLE WIND DIRECTION
  N/A    - NOT AVAILABLE
  
      

Other recent Regional Weather Roundups

Fri Apr 16, 9:04am

Fri Apr 16, 8:04am

Fri Apr 16, 7:04am

Fri Apr 16, 6:04am

Fri Apr 16, 5:04am

Fri Apr 16, 4:04am

Fri Apr 16, 3:04am

Fri Apr 16, 2:04am

Fri Apr 16, 1:04am

Fri Apr 16, 12:04am

Thu Apr 15, 11:05pm

Thu Apr 15, 10:04pm

Thu Apr 15, 9:04pm

Thu Apr 15, 8:04pm

Thu Apr 15, 7:05pm

Thu Apr 15, 6:04pm

Thu Apr 15, 5:05pm

Thu Apr 15, 4:04pm

Thu Apr 15, 3:05pm

Thu Apr 15, 2:04pm

Thu Apr 15, 1:05pm

Thu Apr 15, 12:04pm

Thu Apr 15, 11:04am

Thu Apr 15, 10:05am

Thu Apr 15, 9:04am

Thu Apr 15, 8:04am

Thu Apr 15, 6:04am

Thu Apr 15, 5:04am

Thu Apr 15, 4:04am

Thu Apr 15, 3:04am

Thu Apr 15, 2:04am

Thu Apr 15, 1:04am

Thu Apr 15, 12:04am

Wed Apr 14, 11:04pm

Wed Apr 14, 10:04pm

Wed Apr 14, 9:04pm

Wed Apr 14, 8:04pm

Wed Apr 14, 7:04pm

Wed Apr 14, 6:04pm

Wed Apr 14, 5:05pm

Wed Apr 14, 4:04pm

Wed Apr 14, 3:05pm

Wed Apr 14, 2:04pm

Wed Apr 14, 1:05pm

Wed Apr 14, 12:04pm

Wed Apr 14, 11:04am

Wed Apr 14, 10:04am

Wed Apr 14, 9:04am

Wed Apr 14, 8:04am

Wed Apr 14, 7:04am

Wed Apr 14, 6:04am

Wed Apr 14, 5:04am

Wed Apr 14, 4:04am

Wed Apr 14, 3:04am

Wed Apr 14, 2:04am

Wed Apr 14, 1:04am

Wed Apr 14, 12:04am

Tue Apr 13, 11:04pm

Tue Apr 13, 10:05pm

Tue Apr 13, 9:05pm

Tue Apr 13, 8:05pm

Tue Apr 13, 7:04pm

Tue Apr 13, 6:04pm

Tue Apr 13, 5:05pm

Tue Apr 13, 4:04pm

Tue Apr 13, 3:04pm

Tue Apr 13, 2:05pm

Tue Apr 13, 1:04pm

Tue Apr 13, 12:05pm

Tue Apr 13, 11:05am

Tue Apr 13, 10:04am

Tue Apr 13, 9:04am

Tue Apr 13, 8:04am

Tue Apr 13, 7:04am

Tue Apr 13, 6:04am

Tue Apr 13, 5:04am

Tue Apr 13, 4:04am

Tue Apr 13, 3:04am

Tue Apr 13, 2:04am

Tue Apr 13, 1:04am

Tue Apr 13, 12:05am

Mon Apr 12, 11:04pm

Mon Apr 12, 10:04pm

Mon Apr 12, 9:04pm

Mon Apr 12, 8:04pm

Mon Apr 12, 7:05pm

Mon Apr 12, 6:04pm

Mon Apr 12, 5:04pm

Mon Apr 12, 4:04pm

Mon Apr 12, 3:05pm

Mon Apr 12, 2:04pm

Mon Apr 12, 1:05pm

Mon Apr 12, 12:04pm

Mon Apr 12, 11:04am

Mon Apr 12, 10:04am

Mon Apr 12, 9:04am

Mon Apr 12, 8:04am

Mon Apr 12, 7:04am

Mon Apr 12, 6:04am

Mon Apr 12, 5:04am

Mon Apr 12, 4:04am

Mon Apr 12, 3:04am

Mon Apr 12, 2:04am

Mon Apr 12, 1:05am

Mon Apr 12, 12:04am

Sun Apr 11, 11:04pm

Sun Apr 11, 10:04pm

Sun Apr 11, 9:04pm

Sun Apr 11, 8:04pm

Sun Apr 11, 7:04pm

Sun Apr 11, 6:05pm

Sun Apr 11, 5:05pm

Sun Apr 11, 4:04pm

Sun Apr 11, 3:05pm

Sun Apr 11, 2:05pm

Sun Apr 11, 1:05pm

Sun Apr 11, 12:04pm

Sun Apr 11, 11:05am

Sun Apr 11, 10:05am

Sun Apr 11, 9:04am

Sun Apr 11, 8:04am

Sun Apr 11, 7:04am

Sun Apr 11, 6:04am

Sun Apr 11, 5:04am

Sun Apr 11, 4:04am

Sun Apr 11, 3:04am

Sun Apr 11, 2:04am

Sun Apr 11, 1:05am

Sun Apr 11, 12:04am

Sat Apr 10, 11:05pm

Sat Apr 10, 10:04pm

Sat Apr 10, 9:04pm

Sat Apr 10, 8:04pm

Sat Apr 10, 7:05pm

Sat Apr 10, 6:04pm

Sat Apr 10, 5:04pm

Sat Apr 10, 4:04pm

Sat Apr 10, 3:04pm

Sat Apr 10, 2:05pm

Sat Apr 10, 1:04pm

Sat Apr 10, 12:04pm

Sat Apr 10, 11:04am

Sat Apr 10, 10:04am

Sat Apr 10, 9:04am

Sat Apr 10, 8:04am

Sat Apr 10, 7:04am

Sat Apr 10, 6:04am

Sat Apr 10, 5:04am

Sat Apr 10, 4:04am

Sat Apr 10, 3:04am

Sat Apr 10, 2:04am

Sat Apr 10, 1:05am

Sat Apr 10, 12:04am

Fri Apr 9, 11:04pm

Fri Apr 9, 10:05pm

Fri Apr 9, 9:04pm

Fri Apr 9, 8:05pm

Fri Apr 9, 7:05pm

Fri Apr 9, 6:04pm

Fri Apr 9, 5:04pm

Fri Apr 9, 4:05pm

Fri Apr 9, 3:05pm

Fri Apr 9, 2:04pm

Fri Apr 9, 1:04pm

Fri Apr 9, 12:04pm

Fri Apr 9, 11:05am

Fri Apr 9, 10:04am

Meta data:

ID: 1e581bea-70ef-418a-8c13-b94348cd246c
Link: https://api.weather.gov/products/1e581bea-70ef-418a-8c13-b94348cd246c